Theta_e
319 317 317 317 317 318 318 317 316 316 315 314 315 315 316 315 313 313 313 316 322 326 327 327 326 325 324 323 321 321 320 320 318 318 317 316 316 315 314 314 313 312 312
320 319 318 318 318 318 318 317 316 315 315 315 315 316 316 315 313 312 312 313 320 325 326 327 327 327 326 325 323 322 321 320 319 318 318 316 316 316 315 314 313 312 312
321 320 320 319 320 319 318 316 315 314 314 315 315 316 316 316 314 311 311 311 313 319 323 326 327 327 327 327 326 325 323 321 320 320 318 318 317 316 315 314 313 313 312
323 320 320 319 320 319 318 316 315 314 314 313 314 315 316 316 316 314 312 311 311 313 317 323 326 327 327 327 326 326 326 323 322 321 320 319 318 317 316 315 314 313 312
326 322 320 320 318 318 317 317 315 314 312 313 314 314 315 315 316 317 314 312 312 313 313 317 321 323 326 327 327 327 326 326 324 322 321 320 319 318 317 316 315 314 313
327 324 323 320 318 317 316 315 315 313 314 314 314 315 315 316 316 316 316 315 314 313 313 312 313 315 319 325 326 327 327 327 325 324 323 321 321 320 319 318 317 316 314
327 326 325 322 319 318 317 316 314 313 312 311 310 311 313 314 315 317 317 315 314 313 312 312 312 312 313 321 324 326 327 328 326 326 326 323 322 322 321 320 319 317 316
326 326 325 325 321 320 317 315 315 312 313 312 311 308 307 309 313 316 316 316 316 314 311 312 311 310 310 310 314 322 325 327 327 327 325 327 325 324 323 322 321 320 318
327 325 326 325 324 322 320 317 316 315 314 312 314 311 305 305 305 309 314 316 315 312 312 311 310 311 309 309 311 314 320 323 325 326 327 327 326 325 326 325 323 322 319
327 327 325 325 325 323 321 321 318 316 315 313 311 315 315 309 304 302 307 308 312 311 311 315 313 309 309 308 308 308 310 316 319 322 324 325 325 325 326 326 327 324 321
327 327 326 325 324 324 323 322 320 317 317 315 315 313 313 315 314 309 307 310 305 308 312 314 315 311 308 308 308 307 308 311 313 315 317 319 322 322 323 323 325 326 323
327 326 326 325 325 324 323 322 321 321 318 318 317 317 314 312 311 312 310 310 310 312 309 311 313 313 312 310 307 305 307 309 312 312 313 315 317 318 318 319 320 322 324
326 327 326 325 324 324 324 323 322 321 321 319 318 317 318 317 317 315 313 312 310 311 309 309 310 311 311 310 309 303 304 307 310 311 311 312 314 315 315 316 316 317 318
321 327 326 326 326 325 325 323 323 322 322 321 320 320 319 319 319 317 315 312 309 310 306 307 309 309 310 310 308 302 306 303 307 310 311 311 312 312 313 313 313 314 316
316 320 326 326 326 326 326 325 323 322 322 322 321 321 320 320 320 319 318 316 312 308 310 312 307 308 309 309 308 307 303 301 305 307 308 309 310 311 311 311 312 313 313
312 314 318 323 324 325 325 325 324 324 322 322 321 320 320 320 320 320 319 317 316 312 309 315 314 309 308 304 301 301 301 297 300 303 305 306 308 309 309 309 310 310 311
304 307 312 316 321 322 324 324 324 324 322 321 322 321 320 321 320 320 319 318 316 315 311 314 316 313 305 304 296 297 296 297 297 299 302 304 305 305 306 307 307 308 309
298 300 305 311 316 319 321 322 322 323 322 321 321 320 320 320 319 320 319 317 317 317 314 312 314 304 304 297 296 294 293 294 295 296 299 301 303 303 303 304 305 306 307
293 295 298 301 306 312 317 319 320 321 321 322 321 320 320 320 318 319 319 318 317 317 317 314 313 293 290 291 290 289 289 289 291 294 297 298 299 300 300 301 302 303 303
290 292 294 296 299 303 307 312 314 317 319 320 321 320 320 320 319 318 318 317 317 315 314 313 311 293 290 286 287 287 286 286 286 290 292 293 295 297 299 301 302 300 300
289 290 292 293 294 296 299 301 302 304 306 309 316 318 319 313 303 311 316 316 315 313 311 306 291 289 288 286 288 287 287 285 285 286 286 286 287 288 293 299 297 297 300
287 289 290 291 292 294 295 295 295 297 298 301 304 307 308 298 300 298 298 298 304 311 307 300 295 291 290 291 287 287 285 285 286 286 286 285 286 286 287 289 296 299 300
283 286 288 290 291 293 294 294 293 295 295 296 298 300 299 297 293 298 296 296 296 298 302 302 294 294 290 291 288 286 286 286 287 284 285 284 285 285 286 288 296 298 299
279 283 287 288 289 291 293 293 292 293 294 294 295 295 295 295 294 293 293 291 290 290 292 293 293 292 291 291 291 289 288 285 284 284 285 284 283 284 285 286 293 297 297
278 281 285 286 287 288 291 292 292 290 289 289 290 291 292 291 292 293 290 288 286 286 290 292 293 294 293 293 290 288 286 286 282 282 284 284 283 283 283 283 285 293 296
277 280 283 286 287 287 290 291 291 288 287 288 289 288 287 289 291 292 289 288 287 286 286 286 286 289 289 289 290 287 288 287 283 281 284 283 282 282 280 280 282 284 288
Wind_Speed
6 4 4 4 4 4 4 4 4 4 5 5 5 6 6 6 6 3 3 9 11 13 13 13 12 12 12 12 11 11 12 12 11 11 11 10 9 8 8 7 7 7 6
5 6 5 5 4 4 4 4 5 5 5 5 6 6 7 6 6 6 4 5 12 13 15 16 14 15 15 14 13 13 14 14 13 13 12 11 11 10 10 9 8 8 7
8 8 6 6 6 5 6 5 5 4 4 5 7 6 6 7 6 7 6 5 6 11 14 19 18 16 16 16 16 16 16 16 16 16 15 14 14 13 12 11 11 10 10
8 7 6 7 6 5 6 5 6 6 6 5 6 6 6 6 7 7 6 6 6 6 10 18 19 19 18 18 18 18 18 18 18 17 17 16 16 15 15 14 14 13 12
9 9 8 7 6 6 6 6 5 5 5 6 7 6 6 7 7 7 9 9 9 8 7 12 17 17 18 21 20 20 19 20 19 19 19 18 17 18 18 18 17 16 15
11 10 9 8 7 6 6 5 8 5 6 7 6 7 7 7 7 8 10 9 10 11 10 10 7 10 18 23 23 22 21 21 20 20 20 20 20 20 20 20 19 19 17
12 12 10 8 8 9 10 9 6 8 7 3 2 4 7 8 10 10 8 9 10 12 9 9 7 7 7 21 24 24 24 23 23 22 21 22 21 22 22 23 22 21 20
13 12 11 10 11 9 10 9 10 5 7 6 5 1 6 5 8 11 10 10 14 8 9 11 10 10 9 6 11 23 26 26 26 25 24 22 25 26 26 26 25 24 23
13 12 13 12 11 11 11 11 11 13 10 5 11 6 2 6 2 2 9 10 11 7 8 9 11 11 9 8 11 15 23 25 27 27 25 24 24 26 27 30 29 28 27
10 12 12 13 13 10 12 11 10 12 10 11 3 10 13 4 4 5 3 4 6 7 9 9 8 9 11 9 13 15 16 22 24 25 24 24 25 27 27 27 28 32 31
11 12 11 12 12 11 13 13 11 12 11 11 11 6 9 11 12 9 14 10 3 5 8 9 9 8 10 11 10 13 21 23 23 23 23 24 26 28 27 26 26 25 31
8 9 12 12 14 13 14 13 14 14 13 13 12 12 11 6 9 10 12 14 14 10 7 7 9 9 9 10 13 18 20 24 24 23 24 25 25 23 26 25 26 24 19
7 9 11 13 12 14 14 13 14 14 14 14 16 12 12 13 11 10 10 11 11 5 5 7 8 8 8 9 11 18 20 22 23 24 23 21 20 20 21 24 22 20 18
9 9 10 12 14 14 14 14 13 12 14 14 18 15 12 12 11 11 12 10 9 8 4 6 5 8 9 9 13 16 13 19 22 20 20 19 19 20 20 20 18 21 23
9 11 11 11 13 15 15 15 12 14 14 15 15 15 14 12 11 11 11 11 11 11 12 7 6 9 8 7 11 10 10 10 16 18 18 18 19 19 19 19 21 18 20
13 13 13 12 11 13 14 14 13 13 14 13 12 15 14 12 13 11 10 10 10 12 15 8 8 6 7 5 4 5 6 7 11 12 13 13 14 16 17 19 16 18 16
14 14 14 14 13 12 12 13 15 14 14 15 15 15 17 17 12 12 11 11 12 12 14 11 10 7 6 6 4 3 3 3 3 7 10 13 13 13 14 16 14 15 17
14 15 15 15 13 12 11 13 15 13 15 16 16 16 17 12 16 15 11 14 13 13 12 17 10 6 8 2 3 5 3 2 3 9 12 10 11 12 11 11 10 11 12
15 16 14 14 14 14 12 11 12 14 15 15 15 16 17 15 15 12 13 12 12 11 12 12 12 2 2 1 2 2 3 2 3 5 9 9 11 12 12 13 14 12 11
16 15 15 15 14 15 14 12 10 11 13 12 13 14 15 15 15 15 13 14 11 11 11 11 10 3 2 1 2 2 3 2 2 3 4 4 6 7 13 13 12 13 13
16 17 17 15 15 13 10 13 13 12 12 12 12 12 13 13 16 15 10 11 11 10 10 8 2 2 3 3 6 4 3 2 2 3 3 2 2 1 4 8 6 12 16
15 16 18 17 17 12 18 17 15 11 12 13 12 10 7 7 8 12 12 12 10 8 10 6 4 5 5 4 3 4 4 4 3 5 4 4 3 3 2 2 7 12 16
16 16 15 17 16 15 16 18 18 11 11 12 14 12 9 5 6 6 6 8 9 12 15 7 6 8 5 10 8 4 5 4 3 3 4 2 2 3 1 2 9 11 14
16 16 15 15 15 13 20 19 16 11 10 12 11 10 9 11 7 7 6 5 6 4 4 4 5 6 4 8 9 6 6 5 4 3 2 3 2 2 2 1 5 11 11
16 16 15 16 16 15 21 19 14 9 9 10 10 9 8 9 9 11 7 6 3 2 2 3 3 4 9 12 11 8 6 7 2 2 4 2 3 2 2 0 1 8 10
16 14 16 14 17 17 19 20 15 6 9 8 9 8 10 10 11 11 8 7 7 5 4 2 2 6 7 8 10 2 8 9 4 2 5 4 3 4 3 0 0 1 2
Wind_Direction
202 193 215 203 203 193 206 214 215 221 233 244 249 242 248 232 225 224 219 237 234 236 240 239 234 234 233 230 228 231 225 226 225 219 222 221 217 210 207 203 200 193 175
209 206 204 210 212 203 202 203 214 224 233 225 245 243 240 232 224 223 219 229 233 236 241 247 240 235 237 235 235 230 234 235 228 232 228 230 229 222 219 215 213 210 206
210 210 208 212 215 207 208 209 223 222 233 239 242 243 236 234 229 225 220 224 230 233 238 245 248 247 239 238 232 233 233 236 238 226 232 232 229 227 222 223 218 219 211
209 210 218 213 207 205 209 209 216 229 234 230 242 242 240 233 230 228 224 221 225 221 236 238 242 247 250 248 247 237 234 237 236 237 233 230 232 229 227 224 220 220 217
212 211 216 218 194 208 212 212 218 215 218 235 238 240 239 239 237 234 228 223 226 221 217 233 233 237 243 247 249 249 245 238 238 237 239 239 234 235 232 224 222 218 219
215 214 224 215 192 207 218 209 222 209 228 232 241 243 239 238 237 236 236 230 229 227 218 218 223 234 233 239 245 250 250 249 246 239 237 241 236 234 235 233 227 220 217
215 216 224 212 201 215 218 212 215 220 237 205 262 263 255 244 241 239 235 234 233 230 218 219 216 223 234 237 240 245 249 252 249 245 239 235 238 235 233 232 231 226 220
226 219 223 217 206 216 218 206 208 215 232 178 218 136 281 280 244 235 226 231 239 226 222 224 218 218 220 216 228 238 243 247 250 248 246 240 234 234 233 228 226 221 221
228 222 227 226 219 213 220 216 213 215 233 200 201 203 239 238 314 246 239 237 236 224 228 223 224 224 215 219 223 233 236 241 247 250 252 250 247 244 240 233 225 219 215
232 235 228 231 233 228 230 221 211 217 218 234 203 225 237 192 236 303 255 260 242 235 231 239 233 220 218 221 224 225 227 233 238 243 248 253 255 254 252 258 242 222 212
226 225 220 236 238 234 236 235 223 213 214 223 225 202 227 240 241 244 271 261 251 232 233 234 235 226 219 221 225 228 225 229 231 234 238 243 246 250 256 261 261 277 217
240 223 221 224 232 235 234 232 230 227 220 223 227 225 221 208 214 229 244 253 257 250 223 219 225 226 224 221 223 224 222 226 230 231 232 235 239 243 249 258 263 263 276
255 238 219 225 227 230 231 236 235 231 227 226 227 227 229 229 236 236 242 250 256 249 226 226 225 225 224 221 226 224 227 225 227 230 233 237 240 240 242 251 254 271 284
288 269 240 234 232 229 230 229 234 233 232 231 233 231 233 230 227 228 235 241 256 252 216 238 216 222 225 219 225 222 237 221 226 230 230 228 229 232 237 241 241 247 249
314 308 279 252 238 237 234 235 233 233 229 229 231 230 232 234 234 230 230 228 234 255 256 236 232 213 225 223 227 219 219 219 220 217 222 222 222 221 228 227 236 236 246
332 324 311 288 262 246 239 238 240 237 234 231 230 230 230 229 230 228 223 224 226 239 260 247 241 217 208 218 225 213 212 182 200 211 221 218 218 219 221 234 227 233 236
333 327 322 309 291 267 251 244 245 243 238 236 236 234 232 228 227 227 222 221 226 226 246 250 246 225 206 209 187 151 142 151 158 221 223 207 214 222 226 224 225 236 248
330 325 320 319 309 287 272 259 256 249 245 243 239 236 237 236 236 233 225 228 228 225 235 252 240 218 212 167 160 152 161 168 201 189 214 221 215 215 207 217 222 239 237
328 325 322 319 316 315 305 280 267 260 255 247 243 240 240 238 238 234 232 233 228 229 233 242 250 88 95 165 136 126 150 162 160 200 208 208 219 224 225 226 226 221 192
326 326 322 317 316 312 308 304 316 299 270 256 253 245 244 240 241 240 238 238 230 235 232 238 240 168 151 165 124 154 222 119 167 213 197 192 221 224 231 227 218 189 181
324 321 321 318 315 312 310 325 321 309 301 305 289 251 242 240 241 238 234 241 240 241 240 221 154 145 165 176 197 159 145 164 184 163 157 176 180 209 223 205 209 191 179
319 319 319 315 314 309 308 309 305 304 301 294 288 284 288 289 269 261 258 271 270 243 245 196 192 198 189 218 160 165 123 170 211 189 147 181 159 204 208 208 206 196 185
313 311 309 311 306 303 295 296 295 294 289 287 287 287 288 264 258 267 253 250 246 235 232 203 198 199 202 192 151 174 160 180 177 152 109 124 158 196 166 227 200 203 185
312 310 304 303 299 297 294 286 287 289 280 282 281 280 282 286 259 239 232 233 235 255 254 223 203 195 204 168 173 174 160 112 72 99 106 142 153 163 159 204 219 187 166
309 305 298 299 297 292 290 287 292 284 276 280 281 272 265 270 259 229 218 216 240 262 269 239 213 194 170 163 151 126 151 147 125 173 176 128 162 106 76 74 266 228 183
300 299 294 290 286 287 286 282 283 269 277 280 279 275 263 264 273 232 215 208 214 212 171 115 107 90 101 144 142 113 158 164 128 137 181 141 134 146 133 334 220 253 181